User: anonymous   Login
Location: Andrest
(43.3200°N, 0.0641°E)
Time: 15:38:44
(UTC+00:00)
Language:

Cosmos 1602 Rocket - Orbit

View from above orbital plane
View from above orbital plane
View from above satellite
View from above satellite

Ground track
Ground track

The orbit data is extracted from the following two-line orbital elements,

1 15332U 84105B   21175.23082566  .00000089  00000-0  78776-5 0  9997
2 15332  82.5351 255.6600 0020441 204.9808 169.5106 14.83466027984220
Epoch (UTC): 24 June 2021 05:32:23
Eccentricity: 0.0020441
inclination: 82.5351°
perigee height: 604 km
apogee height: 633 km
right ascension of ascending node: 255.6600°
argument of perigee: 204.9808°
revolutions per day: 14.83466027
mean anomaly at epoch: 169.5106°
orbit number at epoch: 98422

The dashed part of the orbit path shows where the satellite is in the earth's shadow,  

DLR